sat.trackr.live / text

‹ back to catalog

ONEWEB-0510

NORAD 54128 · 2022-138R

PAYLOAD ACTIVE UNKNOWN

§ Identity

Operator
Country
UK
Launch date
2022-10-22
Launch site
SRILR
Launch vehicle
Mass (kg)
RCS (m²)

Purposes: comms

External: N2YO · Heavens-Above · Gunter

§ Orbital elements

Epoch: 2026-05-25T02:26:49.837344Z

Period
109.03 min
Inclination
87.9174°
Eccentricity
0.0002304
Mean motion
13.20771645 rev/d
Perigee alt
1,180.0 km
Apogee alt
1,183.5 km
Semi-major
7,559.9 km
B*
-3.2154e-5
RAAN
279.0383°
Arg perigee
106.1163°
Mean anomaly
254.0224°
Rev number
17,623

§ Raw data

ONEWEB-05101 54128U 22138R   26145.10196571  .00000000  00000+0 -32154-4 0  99932 54128  87.9174 279.0383 0002304 106.1163 254.0224 13.20771645176231

JSON: /api/v1/satellites/54128 · /tle

For live sub-satellite position, see the globe view (requires WebGL).

§ Visibility from observer

Set your observer location to see the next 7 days of passes ≥ 10°. The values pass through the URL so the page stays shareable.

No JS? Fill the form by hand. The geolocation button needs JavaScript.